When you browse on this site, cookies collect data to enhance your experience and personalize the content and advertising you see.
Visit our Privacy Policy to learn more. By continuing to use the site, you agree to this use of cookies and data.
  • Em Portugal
  • Lista de países
  • Para 7 dias
  • Temperatura da água
  • Mapa do tempo
  • Widgets de tempo
  • user-avatar
    Iniciar Sessão

    Previsão horária em Lisburn

    Hoje, 22 Setembro, Domingo

    Tempo Temperatura Precipitação Vento Pressão Humidade
    00:00 +15°C° 0 mm 5 m/s 748 mmHg 95%
    01:00 +15°C° 1.3 mm 5 m/s 747 mmHg 95%
    02:00 +15°C° 1.3 mm 5 m/s 746 mmHg 95%
    03:00 +15°C° 1.3 mm 5 m/s 746 mmHg 95%
    04:00 +15°C° 0.2 mm 5 m/s 746 mmHg 95%
    05:00 +15°C° 0.2 mm 4 m/s 746 mmHg 95%
    06:00 +14°C° 0 mm 5 m/s 746 mmHg 96%
    07:00 +15°C° 0.5 mm 5 m/s 746 mmHg 96%
    08:00 +15°C° 0.5 mm 5 m/s 745 mmHg 95%
    09:00 +15°C° 0.5 mm 5 m/s 745 mmHg 95%
    10:00 +15°C° 0.4 mm 4 m/s 745 mmHg 94%
    11:00 +17°C° 0.4 mm 3 m/s 745 mmHg 93%
    12:00 +17°C° 0.4 mm 3 m/s 746 mmHg 93%
    13:00 +17°C° 0.1 mm 3 m/s 746 mmHg 91%
    14:00 +17°C° 0.1 mm 3 m/s 746 mmHg 90%
    15:00 +17°C° 0.1 mm 3 m/s 746 mmHg 89%
    16:00 +17°C° 0.1 mm 2 m/s 746 mmHg 90%
    17:00 +16°C° 0.1 mm 2 m/s 746 mmHg 92%
    18:00 +16°C° 0.1 mm 1 m/s 746 mmHg 94%
    19:00 +15°C° 0.1 mm 1 m/s 747 mmHg 95%
    20:00 +15°C° 0.1 mm 1 m/s 747 mmHg 95%
    21:00 +15°C° 0.1 mm 1 m/s 747 mmHg 96%
    22:00 +14°C° 0.1 mm 1 m/s 747 mmHg 96%
    23:00 +14°C° 0.1 mm 2 m/s 748 mmHg 96%

    Amanhã, 23 Setembro, Segunda-feira

    Tempo Temperatura Precipitação Vento Pressão Humidade
    00:00 +14°C° 0.1 mm 2 m/s 748 mmHg 96%
    01:00 +12°C° 0.5 mm 3 m/s 748 mmHg 96%
    02:00 +12°C° 0.5 mm 3 m/s 748 mmHg 96%
    03:00 +12°C° 0.5 mm 3 m/s 748 mmHg 96%
    04:00 +11°C° 0 mm 3 m/s 748 mmHg 96%
    05:00 +12°C° 0 mm 2 m/s 748 mmHg 96%
    06:00 +10°C° 0 mm 2 m/s 749 mmHg 96%
    07:00 +12°C° 0 mm 2 m/s 749 mmHg 93%
    08:00 +13°C° 0 mm 2 m/s 749 mmHg 90%
    09:00 +13°C° 0 mm 3 m/s 749 mmHg 86%
    10:00 +13°C° 0 mm 3 m/s 749 mmHg 83%
    11:00 +14°C° 0 mm 4 m/s 748 mmHg 79%
    12:00 +15°C° 0 mm 5 m/s 748 mmHg 76%
    13:00 +14°C° 0.5 mm 5 m/s 748 mmHg 82%
    14:00 +14°C° 0.5 mm 6 m/s 747 mmHg 88%
    15:00 +13°C° 0.5 mm 6 m/s 747 mmHg 93%
    16:00 +14°C° 0.7 mm 7 m/s 746 mmHg 94%
    17:00 +14°C° 0.7 mm 7 m/s 745 mmHg 94%
    18:00 +13°C° 0.7 mm 8 m/s 745 mmHg 95%
    19:00 +14°C° 0.1 mm 7 m/s 745 mmHg 95%
    20:00 +14°C° 0.1 mm 6 m/s 745 mmHg 96%
    21:00 +14°C° 0.1 mm 5 m/s 745 mmHg 97%
    22:00 +14°C° 0.2 mm 5 m/s 744 mmHg 97%
    23:00 +14°C° 0.2 mm 4 m/s 744 mmHg 97%

    Depois de amanhã, 24 Setembro, Terça-feira

    Tempo Temperatura Precipitação Vento Pressão Humidade
    00:00 +14°C° 0.2 mm 3 m/s 744 mmHg 97%
    01:00 +14°C° 0 mm 3 m/s 744 mmHg 97%
    02:00 +14°C° 0 mm 3 m/s 743 mmHg 97%
    03:00 +14°C° 0 mm 3 m/s 743 mmHg 96%
    04:00 +15°C° 0.1 mm 2 m/s 743 mmHg 97%
    05:00 +14°C° 0.1 mm 2 m/s 742 mmHg 97%
    06:00 +14°C° 0.1 mm 2 m/s 742 mmHg 97%
    07:00 +15°C° 0.3 mm 2 m/s 742 mmHg 97%
    08:00 +15°C° 0.3 mm 2 m/s 742 mmHg 96%
    09:00 +16°C° 0.3 mm 2 m/s 742 mmHg 95%
    10:00 +16°C° 0.1 mm 2 m/s 742 mmHg 90%
    11:00 +17°C° 0.1 mm 2 m/s 742 mmHg 86%
    12:00 +18°C° 0.1 mm 3 m/s 742 mmHg 81%
    13:00 +18°C° 0 mm 3 m/s 742 mmHg 80%
    14:00 +18°C° 0 mm 3 m/s 742 mmHg 79%
    15:00 +18°C° 0 mm 3 m/s 741 mmHg 78%
    16:00 +17°C° 0 mm 3 m/s 741 mmHg 82%
    17:00 +16°C° 0 mm 2 m/s 741 mmHg 87%
    18:00 +15°C° 0 mm 2 m/s 741 mmHg 92%
    19:00 +14°C° 0 mm 1 m/s 741 mmHg 92%
    20:00 +13°C° 0 mm 1 m/s 741 mmHg 93%
    21:00 +13°C° 0 mm 1 m/s 741 mmHg 93%
    22:00 +13°C° 0 mm 1 m/s 741 mmHg 93%
    23:00 +12°C° 0 mm 1 m/s 742 mmHg 94%

    25 Setembro, Quarta-feira

    Tempo Temperatura Precipitação Vento Pressão Humidade
    00:00 +12°C° 0 mm 1 m/s 742 mmHg 94%
    01:00 +12°C° 0 mm 1 m/s 742 mmHg 94%
    02:00 +12°C° 0 mm 2 m/s 742 mmHg 95%
    03:00 +12°C° 0 mm 2 m/s 743 mmHg 95%
    04:00 +12°C° 0.1 mm 2 m/s 743 mmHg 95%
    05:00 +12°C° 0.1 mm 2 m/s 743 mmHg 95%
    06:00 +12°C° 0.1 mm 2 m/s 743 mmHg 95%
    07:00 +12°C° 0 mm 2 m/s 744 mmHg 94%
    08:00 +12°C° 0 mm 3 m/s 744 mmHg 92%
    09:00 +13°C° 0 mm 3 m/s 745 mmHg 90%
    10:00 +16°C° 0 mm 3 m/s 745 mmHg 87%
    11:00 +17°C° 0 mm 2 m/s 745 mmHg 83%
    12:00 +18°C° 0 mm 2 m/s 745 mmHg 79%
    13:00 +18°C° 0.1 mm 3 m/s 745 mmHg 79%
    14:00 +18°C° 0.1 mm 3 m/s 745 mmHg 79%
    15:00 +18°C° 0.1 mm 3 m/s 745 mmHg 79%
    16:00 +17°C° 0.1 mm 4 m/s 744 mmHg 83%
    17:00 +17°C° 0.1 mm 4 m/s 744 mmHg 87%
    18:00 +15°C° 0.1 mm 4 m/s 743 mmHg 91%
    19:00 +14°C° 1.3 mm 5 m/s 743 mmHg 93%
    20:00 +14°C° 1.3 mm 5 m/s 742 mmHg 95%
    21:00 +14°C° 1.3 mm 6 m/s 742 mmHg 97%
    22:00 +14°C° 1.4 mm 6 m/s 742 mmHg 96%
    23:00 +14°C° 1.4 mm 5 m/s 741 mmHg 96%

    26 Setembro, Quinta-feira

    Tempo Temperatura Precipitação Vento Pressão Humidade
    00:00 +14°C° 1.4 mm 5 m/s 741 mmHg 95%
    01:00 +14°C° 0.1 mm 5 m/s 741 mmHg 94%
    02:00 +13°C° 0.1 mm 4 m/s 741 mmHg 93%
    03:00 +12°C° 0.1 mm 4 m/s 742 mmHg 91%
    04:00 +11°C° 0 mm 4 m/s 742 mmHg 92%
    05:00 +10°C° 0 mm 4 m/s 742 mmHg 93%
    06:00 +10°C° 0 mm 4 m/s 742 mmHg 93%
    07:00 +10°C° 0.1 mm 4 m/s 742 mmHg 93%
    08:00 +10°C° 0.1 mm 5 m/s 743 mmHg 94%
    09:00 +12°C° 0.1 mm 5 m/s 743 mmHg 94%
    10:00 +13°C° 0.1 mm 5 m/s 743 mmHg 90%
    11:00 +14°C° 0.1 mm 6 m/s 743 mmHg 87%
    12:00 +14°C° 0.1 mm 6 m/s 743 mmHg 83%
    13:00 +15°C° 0.2 mm 6 m/s 743 mmHg 82%
    14:00 +15°C° 0.2 mm 6 m/s 743 mmHg 82%
    15:00 +15°C° 0.2 mm 6 m/s 743 mmHg 81%
    16:00 +14°C° 0.1 mm 6 m/s 743 mmHg 83%
    17:00 +13°C° 0.1 mm 5 m/s 743 mmHg 85%
    18:00 +12°C° 0.1 mm 5 m/s 743 mmHg 87%
    19:00 +12°C° 0 mm 5 m/s 744 mmHg 88%
    20:00 +10°C° 0 mm 5 m/s 744 mmHg 88%
    21:00 +10°C° 0 mm 5 m/s 744 mmHg 89%
    22:00 +10°C° 0 mm 5 m/s 744 mmHg 89%
    23:00 +10°C° 0 mm 5 m/s 744 mmHg 90%

    27 Setembro, Sexta-feira

    Tempo Temperatura Precipitação Vento Pressão Humidade
    00:00 +10°C° 0 mm 5 m/s 744 mmHg 90%
    01:00 +10°C° 0.1 mm 6 m/s 744 mmHg 90%
    02:00 +10°C° 0.1 mm 6 m/s 744 mmHg 90%
    03:00 +10°C° 0.1 mm 6 m/s 744 mmHg 91%
    04:00 +10°C° 0.1 mm 6 m/s 744 mmHg 91%
    05:00 +10°C° 0.1 mm 6 m/s 743 mmHg 91%
    06:00 +10°C° 0.1 mm 6 m/s 743 mmHg 91%
    07:00 +10°C° 0 mm 6 m/s 743 mmHg 90%
    08:00 +10°C° 0 mm 6 m/s 743 mmHg 90%
    09:00 +10°C° 0 mm 7 m/s 743 mmHg 89%
    10:00 +11°C° 0 mm 7 m/s 743 mmHg 88%
    11:00 +11°C° 0 mm 7 m/s 743 mmHg 87%
    12:00 +11°C° 0 mm 7 m/s 743 mmHg 86%
    13:00 +11°C° 0 mm 7 m/s 743 mmHg 85%
    14:00 +11°C° 0 mm 7 m/s 743 mmHg 85%
    15:00 +11°C° 0 mm 7 m/s 742 mmHg 84%
    16:00 +11°C° 0.1 mm 7 m/s 742 mmHg 86%
    17:00 +11°C° 0.1 mm 7 m/s 742 mmHg 87%
    18:00 +11°C° 0.1 mm 7 m/s 741 mmHg 89%
    19:00 +11°C° 0.5 mm 7 m/s 741 mmHg 90%
    20:00 +10°C° 0.5 mm 7 m/s 741 mmHg 92%
    21:00 +10°C° 0.5 mm 7 m/s 741 mmHg 93%
    22:00 +10°C° 0.1 mm 7 m/s 741 mmHg 93%
    23:00 +10°C° 0.1 mm 7 m/s 741 mmHg 92%
    Mostrar mais